Hollywood, FL

9:25 PM EDT on October 16, 2019 (GMT -0400)
North Perry

Weather History for KHWO - September, 2019

Change the Weather History Date:

Monday, September 16, 2019

  Actual Average (KFLL) Record (KFLL)
Temperature  
Mean Temperature 86 °F 83 °F  
Max Temperature 96 °F 89 °F 94 °F (1968)
Min Temperature 79 °F 78 °F 68 °F (1976)
Degree Days  
Heating Degree Days 0 0  
Month to date heating degree days 0  
Since 1 July heating degree days 0  
Cooling Degree Days 21 18  
Month to date cooling degree days 294  
Year to date cooling degree days 3460  
Growing Degree Days 36 (Base 50)    
Moisture  
Dew Point 73 °F    
Average Humidity 67    
Maximum Humidity 85    
Minimum Humidity 49    
Precipitation  
Precipitation 0.00 in 0.31 in 3.20 in (1950)
Month to date precipitation 4.54  
Year to date precipitation 45.61  
Snow  
Snow 0.00 in - - ()
Month to date snowfall  
Since 1 July snowfall  
Since 1 September snowfall  
Snow Depth -    
Sea Level Pressure  
Sea Level Pressure 29.95 in    
Wind  
Wind Speed 8 mph (WNW)    
Max Wind Speed 16 mph    
Max Gust Speed 22 mph    
Visibility 10 miles    
Events      
T = Trace of Precipitation, MM = Missing Value Source: NWS Daily Summary

Daily Weather History Graph

Daily Weather History Graph

Search for Another Location

Airport or City:

Astronomy

Sep. 16, 2019 Rise Set
Actual Time 7:07 AM EDT 7:24 PM EDT
Civil Twilight 6:43 AM EDT 7:47 PM EDT
Nautical Twilight 6:17 AM EDT 8:14 PM EDT
Astronomical Twilight 5:49 AM EDT 8:41 PM EDT
Moon 9:09 PM EDT (9/16) 9:04 AM EDT (9/16)
Length of Visible Light 13h 03m
Length of Day
12h 17m
Waning Gibbous, 94% of the Moon is Illuminated
Sep 16
Waning Gibbous
Sep 21
Last Quarter
Sep 28
New
Oct 5
First Quarter
Oct 13
Full

Hourly Weather History & Observations

Time (EDT) Temp. Heat Index Dew Point Humidity Pressure Visibility Wind Dir Wind Speed Gust Speed Precip Events Conditions
12:53 AM 82.0 °F 87.9 °F 73.9 °F 76% 29.96 in 10.0 mi West 8.1 mph - N/A   Clear
1:53 AM 81.0 °F 86.2 °F 73.9 °F 79% 29.95 in 10.0 mi WSW 5.8 mph - N/A   Clear
2:53 AM 81.0 °F 86.2 °F 73.9 °F 79% 29.94 in 10.0 mi WNW 5.8 mph - N/A   Clear
3:53 AM 80.1 °F 84.5 °F 73.9 °F 81% 29.93 in 10.0 mi WNW 5.8 mph - N/A   Clear
4:53 AM 80.1 °F 84.5 °F 73.9 °F 81% 29.92 in 10.0 mi WNW 5.8 mph - N/A   Clear
5:53 AM 80.1 °F 84.5 °F 73.9 °F 81% 29.95 in 10.0 mi WNW 5.8 mph - N/A   Clear
6:53 AM 79.0 °F - 73.9 °F 84% 29.96 in 10.0 mi West 4.6 mph - N/A   Clear
7:53 AM 80.1 °F 85.1 °F 75.0 °F 85% 29.98 in 10.0 mi WNW 5.8 mph - N/A   Clear
8:53 AM 82.9 °F 89.4 °F 73.9 °F 74% 29.99 in 10.0 mi WNW 8.1 mph - N/A   Clear
9:53 AM 86.0 °F 93.8 °F 73.9 °F 67% 30.00 in 10.0 mi NW 11.5 mph - N/A   Clear
10:53 AM 88.0 °F 95.6 °F 73.0 °F 61% 29.99 in 10.0 mi West 11.5 mph - N/A   Clear
11:53 AM 90.0 °F 97.9 °F 73.0 °F 57% 29.99 in 10.0 mi WNW 8.1 mph - N/A   Partly Cloudy
12:53 PM 91.9 °F 99.5 °F 72.0 °F 52% 29.98 in 10.0 mi West 16.1 mph 21.9 mph N/A   Scattered Clouds
1:53 PM 93.9 °F 102.1 °F 72.0 °F 49% 29.96 in 10.0 mi West 12.7 mph 19.6 mph N/A   Scattered Clouds
2:53 PM 93.9 °F 102.1 °F 72.0 °F 49% 29.93 in 10.0 mi WNW 10.4 mph - N/A   Scattered Clouds
3:53 PM 93.0 °F 100.1 °F 71.1 °F 49% 29.91 in 10.0 mi WNW 12.7 mph 19.6 mph N/A   Scattered Clouds
4:53 PM 93.9 °F 102.1 °F 72.0 °F 49% 29.90 in 10.0 mi WNW 8.1 mph - N/A   Mostly Cloudy
5:53 PM 93.0 °F 100.7 °F 72.0 °F 50% 29.90 in 10.0 mi West 9.2 mph - N/A   Partly Cloudy
6:53 PM 91.0 °F 99.3 °F 73.0 °F 55% 29.90 in 10.0 mi WNW 6.9 mph - N/A   Partly Cloudy
7:53 PM 87.1 °F 97.3 °F 75.9 °F 69% 29.91 in 10.0 mi ENE 9.2 mph - N/A   Mostly Cloudy
8:53 PM 86.0 °F 96.0 °F 75.9 °F 72% 29.94 in 10.0 mi NE 10.4 mph - N/A   Clear
9:53 PM 84.9 °F 92.1 °F 73.9 °F 69% 29.94 in 10.0 mi NNE 8.1 mph - N/A   Clear
10:53 PM 84.0 °F 91.2 °F 73.9 °F 72% 29.96 in 10.0 mi NNW 8.1 mph - N/A   Partly Cloudy
11:53 PM 82.9 °F 89.4 °F 73.9 °F 74% 29.95 in 10.0 mi North 4.6 mph - N/A   Clear